Time,TemperatureF,DewpointF,PressureIn,WindDirection,WindDirectionDegrees,WindSpeedMPH,WindSpeedGustMPH,Humidity,HourlyPrecipIn,Conditions,Clouds,dailyrainin,SoftwareType,DateUTC
2013-01-21 00:02:00,60.0,52.0,29.91,SSW,198,3.0,7.0,76,0.00,,,0.00,,2013-01-20 22:02:00,
2013-01-21 00:12:00,60.0,52.0,29.91,SSW,198,3.0,7.0,76,0.00,,,0.00,,2013-01-20 22:12:00,
2013-01-21 00:22:00,60.0,52.0,29.88,NNE,27,3.0,7.0,76,0.00,,,0.00,,2013-01-20 22:22:00,
2013-01-21 00:32:00,60.0,52.0,29.88,NNE,27,3.0,7.0,76,0.00,,,0.00,,2013-01-20 22:32:00,
2013-01-21 00:43:00,60.0,52.0,29.88,NNE,27,3.0,7.0,76,0.00,,,0.00,,2013-01-20 22:43:00,
2013-01-21 00:53:00,60.0,52.0,29.88,NNE,21,3.0,7.0,76,0.00,,,0.00,,2013-01-20 22:53:00,
2013-01-21 01:02:00,60.0,52.0,29.88,NNE,21,3.0,7.0,76,0.00,,,0.00,,2013-01-20 23:02:00,
2013-01-21 01:12:00,60.0,52.0,29.88,NNE,21,3.0,7.0,76,0.00,,,0.00,,2013-01-20 23:12:00,
2013-01-21 01:22:00,59.0,51.0,29.88,NE,38,1.0,7.0,75,0.00,,,0.00,,2013-01-20 23:22:00,
2013-01-21 01:30:00,59.0,51.0,29.85,NE,52,1.0,6.0,75,0.00,,,0.00,,2013-01-20 23:30:00,
2013-01-21 01:32:00,59.0,51.0,29.88,NE,38,1.0,7.0,75,0.00,,,0.00,,2013-01-20 23:32:00,
2013-01-21 01:43:00,59.0,51.0,29.88,NE,38,1.0,7.0,75,0.00,,,0.00,,2013-01-20 23:43:00,
2013-01-21 01:53:00,59.0,51.0,29.85,NE,52,1.0,6.0,75,0.00,,,0.00,,2013-01-20 23:53:00,
2013-01-21 02:02:00,59.0,51.0,29.85,NE,52,1.0,6.0,75,0.00,,,0.00,,2013-01-21 00:02:00,
2013-01-21 02:12:00,59.0,51.0,29.85,NE,52,1.0,6.0,75,0.00,,,0.00,,2013-01-21 00:12:00,
2013-01-21 02:22:00,59.0,51.0,29.85,NE,52,1.0,6.0,75,0.00,,,0.00,,2013-01-21 00:22:00,
2013-01-21 11:30:00,63.0,48.0,29.80,SSE,152,5.0,13.0,59,0.00,,,0.00,,2013-01-21 09:30:00,
2013-01-21 11:53:00,63.0,48.0,29.80,SSE,152,5.0,13.0,59,0.00,,,0.00,,2013-01-21 09:53:00,
2013-01-21 12:02:00,63.0,48.0,29.80,SSE,152,5.0,13.0,59,0.00,,,0.00,,2013-01-21 10:02:00,
2013-01-21 12:12:00,63.0,48.0,29.80,SSE,152,5.0,13.0,59,0.00,,,0.00,,2013-01-21 10:12:00,
2013-01-21 12:22:00,63.0,48.0,29.80,SSE,152,5.0,13.0,59,0.00,,,0.00,,2013-01-21 10:22:00,
2013-01-21 12:52:00,63.0,48.0,29.74,East,84,6.0,12.0,58,0.00,,,0.00,,2013-01-21 10:52:00,
2013-01-21 13:02:00,63.0,48.0,29.74,East,84,6.0,12.0,58,0.00,,,0.00,,2013-01-21 11:02:00,
2013-01-21 13:12:00,63.0,48.0,29.74,East,84,6.0,12.0,58,0.00,,,0.00,,2013-01-21 11:12:00,
2013-01-21 13:22:00,63.0,47.0,29.74,SSW,208,7.0,12.0,55,0.00,,,0.00,,2013-01-21 11:22:00,
2013-01-21 13:32:00,63.0,47.0,29.74,SSW,208,7.0,12.0,55,0.00,,,0.00,,2013-01-21 11:32:00,
2013-01-21 13:43:00,63.0,47.0,29.74,SSW,208,7.0,12.0,55,0.00,,,0.00,,2013-01-21 11:43:00,
2013-01-21 13:53:00,64.0,45.0,29.71,South,190,5.0,12.0,51,0.00,,,0.00,,2013-01-21 11:53:00,
2013-01-21 14:02:00,64.0,45.0,29.71,South,190,5.0,12.0,51,0.00,,,0.00,,2013-01-21 12:02:00,
2013-01-21 14:12:00,64.0,45.0,29.71,South,190,5.0,12.0,51,0.00,,,0.00,,2013-01-21 12:12:00,
2013-01-21 14:22:00,65.0,45.0,29.71,NE,55,5.0,12.0,49,0.00,,,0.00,,2013-01-21 12:22:00,
2013-01-21 14:32:00,65.0,45.0,29.71,NE,55,5.0,12.0,49,0.00,,,0.00,,2013-01-21 12:32:00,
2013-01-21 14:43:00,65.0,45.0,29.71,NE,55,5.0,12.0,49,0.00,,,0.00,,2013-01-21 12:43:00,
2013-01-21 14:53:00,66.0,46.0,29.68,SSE,152,9.0,15.0,48,0.00,,,0.00,,2013-01-21 12:53:00,
2013-01-21 15:02:00,66.0,46.0,29.68,SSE,152,9.0,15.0,48,0.00,,,0.00,,2013-01-21 13:02:00,
2013-01-21 15:12:00,66.0,46.0,29.68,SSE,152,9.0,15.0,48,0.00,,,0.00,,2013-01-21 13:12:00,
2013-01-21 15:22:00,66.0,45.0,29.68,ENE,72,9.0,15.0,47,0.00,,,0.00,,2013-01-21 13:22:00,
2013-01-21 15:32:00,66.0,45.0,29.68,ENE,72,9.0,15.0,47,0.00,,,0.00,,2013-01-21 13:32:00,
2013-01-21 15:43:00,66.0,45.0,29.68,ENE,72,9.0,15.0,47,0.00,,,0.00,,2013-01-21 13:43:00,
2013-01-21 15:53:00,66.0,47.0,29.65,East,93,7.0,15.0,50,0.00,,,0.00,,2013-01-21 13:53:00,
2013-01-21 16:02:00,66.0,47.0,29.65,East,93,7.0,15.0,50,0.00,,,0.00,,2013-01-21 14:02:00,
2013-01-21 16:12:00,66.0,47.0,29.65,East,93,7.0,15.0,50,0.00,,,0.00,,2013-01-21 14:12:00,
2013-01-21 16:22:00,64.0,48.0,29.68,SSW,203,8.0,17.0,56,0.00,,,0.00,,2013-01-21 14:22:00,
2013-01-21 16:32:00,64.0,48.0,29.68,SSW,203,8.0,17.0,56,0.00,,,0.00,,2013-01-21 14:32:00,
2013-01-21 16:43:00,64.0,48.0,29.68,SSW,203,8.0,17.0,56,0.00,,,0.00,,2013-01-21 14:43:00,
2013-01-21 16:53:00,64.0,50.0,29.65,NE,51,9.0,14.0,61,0.00,,,0.00,,2013-01-21 14:53:00,
2013-01-21 17:02:00,64.0,50.0,29.65,NE,51,9.0,14.0,61,0.00,,,0.00,,2013-01-21 15:02:00,
2013-01-21 17:12:00,64.0,50.0,29.65,NE,51,9.0,14.0,61,0.00,,,0.00,,2013-01-21 15:12:00,
2013-01-21 17:22:00,63.0,50.0,29.65,SSE,156,9.0,17.0,63,0.00,,,0.00,,2013-01-21 15:22:00,
2013-01-21 17:32:00,63.0,50.0,29.65,SSE,156,9.0,17.0,63,0.00,,,0.00,,2013-01-21 15:32:00,
2013-01-21 17:43:00,63.0,50.0,29.65,SSE,156,9.0,17.0,63,0.00,,,0.00,,2013-01-21 15:43:00,
2013-01-21 17:53:00,62.0,51.0,29.65,SE,142,7.0,13.0,67,0.00,,,0.00,,2013-01-21 15:53:00,
2013-01-21 18:02:00,62.0,51.0,29.65,SE,142,7.0,13.0,67,0.00,,,0.00,,2013-01-21 16:02:00,
2013-01-21 18:12:00,62.0,51.0,29.65,SE,142,7.0,13.0,67,0.00,,,0.00,,2013-01-21 16:12:00,
2013-01-21 18:22:00,62.0,52.0,29.65,NE,56,6.0,14.0,70,0.00,,,0.00,,2013-01-21 16:22:00,
2013-01-21 18:32:00,62.0,52.0,29.65,NE,56,6.0,14.0,70,0.00,,,0.00,,2013-01-21 16:32:00,
2013-01-21 18:43:00,62.0,52.0,29.65,NE,56,6.0,14.0,70,0.00,,,0.00,,2013-01-21 16:43:00,
2013-01-21 18:53:00,62.0,54.0,29.65,ESE,104,7.0,12.0,75,0.00,,,0.00,,2013-01-21 16:53:00,
2013-01-21 19:02:00,62.0,54.0,29.65,ESE,104,7.0,12.0,75,0.00,,,0.00,,2013-01-21 17:02:00,
2013-01-21 19:12:00,62.0,54.0,29.65,ESE,104,7.0,12.0,75,0.00,,,0.00,,2013-01-21 17:12:00,
2013-01-21 19:22:00,62.0,55.0,29.65,NE,56,6.0,16.0,78,0.00,,,0.00,,2013-01-21 17:22:00,
2013-01-21 19:32:00,62.0,55.0,29.65,NE,56,6.0,16.0,78,0.00,,,0.00,,2013-01-21 17:32:00,
2013-01-21 19:43:00,62.0,55.0,29.65,NE,56,6.0,16.0,78,0.00,,,0.00,,2013-01-21 17:43:00,
2013-01-21 19:53:00,62.0,55.0,29.65,SE,144,6.0,15.0,79,0.00,,,0.00,,2013-01-21 17:53:00,
2013-01-21 20:02:00,62.0,55.0,29.65,SE,144,6.0,15.0,79,0.00,,,0.00,,2013-01-21 18:02:00,
2013-01-21 20:12:00,62.0,55.0,29.65,SE,144,6.0,15.0,79,0.00,,,0.00,,2013-01-21 18:12:00,
2013-01-21 20:22:00,62.0,56.0,29.65,SSW,204,6.0,15.0,81,0.00,,,0.00,,2013-01-21 18:22:00,
2013-01-21 20:32:00,62.0,56.0,29.65,SSW,204,6.0,15.0,81,0.00,,,0.00,,2013-01-21 18:32:00,
2013-01-21 20:43:00,62.0,56.0,29.65,SSW,204,6.0,15.0,81,0.00,,,0.00,,2013-01-21 18:43:00,
2013-01-21 20:52:00,62.0,57.0,29.65,SSW,200,7.0,15.0,83,0.00,,,0.00,,2013-01-21 18:52:00,
2013-01-21 21:02:00,62.0,57.0,29.65,SSW,200,7.0,15.0,83,0.00,,,0.00,,2013-01-21 19:02:00,
2013-01-21 21:12:00,61.0,55.0,29.62,SW,226,6.0,12.0,82,0.00,,,0.00,,2013-01-21 19:12:00,
2013-01-21 21:22:00,61.0,55.0,29.62,SW,226,6.0,12.0,82,0.00,,,0.00,,2013-01-21 19:22:00,
2013-01-21 21:32:00,61.0,55.0,29.62,SW,226,6.0,12.0,82,0.00,,,0.00,,2013-01-21 19:32:00,
2013-01-21 21:43:00,61.0,55.0,29.62,SW,226,6.0,12.0,82,0.00,,,0.00,,2013-01-21 19:43:00,
2013-01-21 21:53:00,61.0,55.0,29.62,SSW,206,7.0,14.0,80,0.00,,,0.00,,2013-01-21 19:53:00,
2013-01-21 22:02:00,61.0,55.0,29.62,SSW,206,7.0,14.0,80,0.00,,,0.00,,2013-01-21 20:02:00,
2013-01-21 22:12:00,61.0,55.0,29.62,SSW,206,7.0,14.0,80,0.00,,,0.00,,2013-01-21 20:12:00,
2013-01-21 22:22:00,61.0,55.0,29.65,South,181,6.0,14.0,82,0.00,,,0.00,,2013-01-21 20:22:00,
2013-01-21 22:32:00,61.0,55.0,29.65,South,181,6.0,14.0,82,0.00,,,0.00,,2013-01-21 20:32:00,
2013-01-21 22:43:00,61.0,55.0,29.65,South,181,6.0,14.0,82,0.00,,,0.00,,2013-01-21 20:43:00,
2013-01-21 22:53:00,60.0,56.0,29.65,South,183,5.0,12.0,86,0.00,,,0.00,,2013-01-21 20:53:00,
2013-01-21 23:02:00,60.0,56.0,29.65,South,183,5.0,12.0,86,0.00,,,0.00,,2013-01-21 21:02:00,
2013-01-21 23:12:00,60.0,56.0,29.65,South,183,5.0,12.0,86,0.00,,,0.00,,2013-01-21 21:12:00,
2013-01-21 23:22:00,60.0,56.0,29.65,SW,228,3.0,8.0,87,0.00,,,0.00,,2013-01-21 21:22:00,
2013-01-21 23:32:00,60.0,56.0,29.65,SW,228,3.0,8.0,87,0.00,,,0.00,,2013-01-21 21:32:00,
2013-01-21 23:43:00,60.0,56.0,29.65,SW,228,3.0,8.0,87,0.00,,,0.00,,2013-01-21 21:43:00,
2013-01-21 23:53:00,60.0,56.0,29.65,SW,222,4.0,6.0,87,0.00,,,0.00,,2013-01-21 21:53:00,